Torna al catalogo

USA 393

AttivoMilitareVLEO
NORAD 60176·PAYLOAD·🇺🇸 United States

Lanciato Jun 29, 2024 da Vandenberg Space Force Base

Loading…

Prossimi Passaggi (prossime 24 ore)

TLE

ObsoletoSource: Mike McCants

Epoca: Aug 23, 2026, 01:18 UTC

1 60176U 24121U   26235.05469847 0.00000000  00000-0  00000-0 0    04
2 60176  70.0222 219.1768 0003000 272.0079  87.9920 14.96713104    00

Traccia USA 393 in tempo reale con AllMySat

Download on the App Store